User: anonymous   Login
Location: Unspecified
(0.0000°N, 0.0000°E)
Time: 21:37:58
(UTC+00:00)
Language:

AEROCUBE 2 - Orbit

View from above orbital plane
View from above orbital plane
View from above satellite
View from above satellite

Ground track
Ground track

The orbit data is extracted from the following two-line orbital elements,

1 31133U 07012R   18048.83739691  .00000147  00000-0  39609-4 0  9991
2 31133  98.0644   2.0306 0082085  91.2299 269.8307 14.58954460576256
Epoch (UTC): 17 February 2018 20:05:51
Eccentricity: 0.0082085
inclination: 98.0644°
perigee height: 638 km
apogee height: 754 km
right ascension of ascending node: 2.0306°
argument of perigee: 91.2299°
revolutions per day: 14.58954460
mean anomaly at epoch: 269.8307°
orbit number at epoch: 57625

The dashed part of the orbit path shows where the satellite is in the earth's shadow,  

DLR